Other Public Products
Issued by NWS Charleston, SC

Current Version | Previous Version | Text Only | Print | Product List | Glossary Off
Versions: 1 2 3 4 5 6 7 8 9 10 11 12 13 14 15 16 17 18 19 20 21 22 23 24 25 26 27 28 29 30 31 32 33 34 35 36 37 38 39 40 41 42 43 44 45 46 47 48 49 50

000
FPUS82 KCHS 230912
OPUCHS

TEST...KCHS/KSAV Gateway Observations...TEST
National Weather Service Charleston SC
500 AM EDT MON APR 23 2018

NOTE: "fair" indicates few or no clouds below 12,000 feet with no
significant weather and/or obstructions to visibility.

SCZ050-WAZ558-NCZ071-TXZ119-213-PAZ071-DCZ001-FLZ074-172-MI076-
NYZ176-178-MAZ016-IL014-TNZ027-NJZ106-GAZ044-MD014-231000-

...Gateway Observations for Charleston International...

CITY           SKY/WX    TMP DP  RH WIND       PRES   REMARKS
Chas Airport   LGT RAIN  65  59  81 E13       30.14F
Seattle        CLEAR     45  37  73 N7        30.34S
Charlotte      CLOUDY    58  49  72 E15G21    30.24R
Dallas DFW     CLEAR     52  47  83 N8        30.01F
Dallas Love    PTCLDY    54  48  80 N6        30.02F
Philladelphia  FAIR      44  33  65 CALM      30.43S
Wash National  MOCLDY    52  38  58 CALM      30.41S
Baltimore      MOCLDY    50  40  68 CALM      30.40S
Miami          FAIR      77  73  87 SE14G21   29.99S
Detroit        FAIR      46  25  43 NE9       30.25F
Newark         FAIR      45  31  58 NE3       30.42S
Laguardia      FAIR      46  37  71 NE5       30.42R
J F K          FAIR      43  37  79 SW3       30.44R
Boston Logan   FAIR      45  20  36 NW6       30.44R
Ft. Lauderdale FAIR      77  73  87 SE9       29.99S
Chicago O`Hare MOCLDY    46  26  45 NE8       30.19F
Chicago Midway MOCLDY    46  26  45 NE8       30.20S
Houston Bush   FAIR      53  50  89 CALM      30.02F
Houston Hobby  FAIR      55  53  93 NE3       30.01F
Nashville      LGT RAIN  59  55  87 E17G28    29.86R
Atlanta        LGT RAIN  58  58 100 VRB6      29.95R

$$

GAZ044-118-TXZ119-213-NCZ071-DCZ001-MDZ014-506-PAZ021-071-NJZ106-
NYZ176-178-MAZ106-OHZ011-021-055-MIZ076-KYZ091-ILZ014-INZ047-
MNZ060-ONZ431-231000-

...Gateway Observations for Savannah International...

CITY           SKY/WX    TMP DP  RH WIND       PRES   REMARKS
Savannah Arpt  RAIN      65  63  93 E16       30.06F
Atlanta        LGT RAIN  58  58 100 VRB6      29.95R
Charlotte      CLOUDY    58  49  72 E15G21    30.24R
Dallas DFW     CLEAR     52  47  83 N8        30.01F
Houston Bush   FAIR      53  50  89 CALM      30.02F
Wash National  MOCLDY    52  38  58 CALM      30.41S
Wash Dulles    MOCLDY    44  39  82 CALM      30.39S
Baltimore      MOCLDY    50  40  68 CALM      30.40S
Philadelphia   FAIR      44  33  65 CALM      30.43S
Newark         FAIR      45  31  58 NE3       30.42S
Laguardia      FAIR      46  37  71 NE5       30.42R
J F K          FAIR      43  37  79 SW3       30.44R
Boston         FAIR      45  20  36 NW6       30.44R
Pittsburg      FAIR      50  37  61 E9        30.26F
Akron          FAIR      49  33  54 E6        30.24S
Cleveland      FAIR      52  32  46 E12       30.25F
Cincinnati     CLOUDY    55  32  41 E9        30.07S
Columbus       FAIR      46  34  61 E7        30.15S
Detroit        FAIR      46  25  43 NE9       30.25F
Chicago O`Hare MOCLDY    46  26  45 NE8       30.19F
Minneapolis    FAIR      42  36  79 CALM      30.24S
Indianapolis   MOCLDY    50  29  44 NE14      30.08F
Toronto Canada CLEAR     37  23  56 N3        30.38S

$$




USA.gov is the U.S. government's official web portal to all federal, state and local government web resources and services.